Location: Newark
(45.9456°N, 15.4064°E)
Time: 03:40:08
(UTC+00:00)

Vanguard 2 Rocket - Visible Passes

Search period start: 20 January 2020 00:00
Search period end: 30 January 2020 00:00
Orbit: 554 x 3326 km, 32.9° (Epoch: 19 January)

Date Brightness Start Highest point End Pass type
(mag) Time Alt. Az. Time Alt. Az. Time Alt. Az.
20 Jan 9.1 05:57:35 10° SW 06:02:53 28° SSE 06:11:05 10° ESE visible
21 Jan 9.0 04:59:39 10° SSW 05:03:44 20° SSE 05:09:22 10° ESE visible
22 Jan 9.1 04:02:40 10° S 04:04:48 12° SSE 04:07:15 10° ESE visible
23 Jan 8.8 05:13:06 10° SSW 05:17:21 23° SSE 05:23:25 10° ESE visible
24 Jan 8.7 04:15:18 10° SSW 04:18:19 16° SSE 04:22:05 10° ESE visible
25 Jan 8.7 05:26:51 10° SW 05:31:05 25° SSE 05:37:11 10° ESE visible
26 Jan 8.5 04:28:57 11° SSW 04:31:59 19° SSE 04:36:16 10° ESE visible
27 Jan 8.6 03:32:55 13° SSE 03:33:00 13° SSE 03:35:19 10° SE visible
27 Jan 8.6 05:40:51 10° SW 05:44:56 24° S 05:50:44 10° SE visible
28 Jan 8.4 04:42:40 11° SW 04:45:46 20° S 04:50:06 10° SE visible
29 Jan 8.3 03:46:35 15° SSE 03:46:44 16° SSE 03:49:40 10° SE visible
